Location: Unspecified
(23.0469°N, 0.0000°E)
Time: 18:53:20
(UTC+00:00)

Oscar 19 - Visible Passes

Search period start: 04 April 2026 00:00
Search period end: 14 April 2026 00:00
Orbit: 769 x 787 km, 98.9° (Epoch: 29 March)

Date Brightness Start Highest point End Pass type
(mag) Time Alt. Az. Time Alt. Az. Time Alt. Az.
4 Apr 11.8 18:51:21 10° S 18:56:12 45° W 19:01:05 10° NNW visible
6 Apr 13.3 19:25:51 10° SW 19:29:27 19° W 19:33:02 10° NW visible
7 Apr 11.8 18:51:29 10° S 18:56:21 46° W 19:01:13 10° NNW visible
9 Apr 13.3 19:25:59 10° SW 19:29:35 19° W 19:33:12 10° NW visible
10 Apr 11.8 18:51:37 10° S 18:56:29 46° W 19:01:22 10° NNW visible
12 Apr 13.3 19:26:06 10° SW 19:29:43 20° W 19:33:21 10° NW visible
13 Apr 11.8 18:51:45 10° S 18:56:37 47° W 19:01:31 10° NNW visible
